Location: Bucharest
(44.4268°N, 26.1025°E)
Time: 03:55:44
(UTC+03:00)

SPROUT - Pass Details

Date: 01 July 2022
Orbit: 588 x 598 km, 97.9° (Epoch: 15 August)

Event Time Altitude Azimuth Distance (km) Brightness Sun altitude
Exits shadow 03:17:36 15° 268° (W) 1,631 ? -17.2°
Maximum altitude 03:17:40 15° 269° (W) 1,631 ? -17.2°
Drops below altitude 10° 03:19:58 10° 303° (WNW) 1,906 ? -17.0°
Sets 03:23:06 0° 328° (NNW) 2,830 ? -16.8°
